Regional Weather Roundup
Issued by NWS Green Bay, WI

Home | Current Version | Previous Version | Text Only | Print | Product List | Glossary On
Versions: 1 2 3 4 5 6 7 8 9 10 11 12 13 14 15 16 17 18 19 20 21 22 23 24 25 26 27 28 29 30 31 32 33 34 35 36 37 38 39 40 41 42 43 44 45 46 47 48 49 50
000
ASUS43 KGRB 231710
RWRGRB

NORTH-CENTRAL AND NORTHEAST WISCONSIN REGIONAL WEATHER ROUNDUP
NATIONAL WEATHER SERVICE GREEN BAY WI
1200 PM CDT WED JUL 23 2014

WIZ005-009-010>012-018-019-231800-
NORTH CENTRAL WISCONSIN

CITY           SKY/WX    TMP DP  RH WIND       PRES   REMARKS
IRONWOOD       NOT AVBL
MANITOWISH WTR CLOUDY    64  54  69 CALM      30.25S
ARBOR VITAE    PTSUNNY   72  55  55 N5        30.25S
EAGLE RIVER    CLOUDY    64  49  57 CALM      30.25S
LAND O LAKES   CLOUDY    65  52  61 N9        30.26S
RHINELANDER    CLOUDY    66  51  58 VRB6      30.25F
PHILLIPS       MOSUNNY   71  56  59 NE10      30.23F
ANTIGO         SUNNY     68  51  54 NW9       30.24S
TOMAHAWK       PTSUNNY   67  55  65 NE3       30.25S
MERRILL        PTSUNNY   69  55  62 N5        30.23S
$$

WIZ013-073-231800-
NORTHEAST WISCONSIN

CITY           SKY/WX    TMP DP  RH WIND       PRES   REMARKS
IRON MOUNTAIN  MOSUNNY   69  48  47 N14G20    30.22S
MARINETTE      SUNNY     70  48  46 N12G18    30.20R
OCONTO         SUNNY     71  50  47 N13G20    30.20R
$$

WIZ017-030-035>037-045-231800-
CENTRAL WISCONSIN

CITY           SKY/WX    TMP DP  RH WIND       PRES   REMARKS
MEDFORD        MOSUNNY   70  55  59 N5        30.24S
WAUSAU         MOSUNNY   73  54  51 VRB5      30.21F
MOSINEE        PTSUNNY   72  55  56 NW8       30.23F
MARSHFIELD     PTSUNNY   71  56  58 W5        30.22F
WISC RAPIDS    MOSUNNY   75  55  49 N6        30.23F
STEVENS POINT  CLOUDY    71  53  52 N5G16     30.22F
WAUPACA        SUNNY     75  50  41 N8        30.21F
SHAWANO        MOSUNNY   72  49  43 N12       30.21S
CLINTONVILLE   PTSUNNY   72  46  40 N5        30.21S
$$

WIZ038-039-048-051-231800-
FOX VALLEY

CITY           SKY/WX    TMP DP  RH WIND       PRES   REMARKS
NWS GREEN BAY  SUNNY     74  52  46 NE16      30.20R
APPLETON       PTSUNNY   70  50  49 NE13      30.21S
OSHKOSH        MOSUNNY   72  53  51 NE13      30.20R
FOND DU LAC    SUNNY     73  51  46 NE10      30.21S
$$

WIZ022-050-052-231800-
EAST CENTRAL WISCONSIN

CITY           SKY/WX    TMP DP  RH WIND       PRES   REMARKS
STURGEON BAY   SUNNY     64  52  63 N16       30.21S
MANITOWOC      SUNNY     67  53  61 NE9       30.19R
SHEBOYGAN      SUNNY     66  54  65 E12       30.19R
$$

LMZ563-521-522-541>543-231800-
LAKESHORE

STATION/POSITION TIME  TEMP    WIND        PRES    VSBY  WAVE
                       AIR SEA DIR/SP/G                  HT/PER
                 (UTC) (F)     (DEG/KT/KT) (MB)    (MI)  (FT/S)
SHEBOYGAN LKSHOR 1700   56      20/  7/  8 1022.8R
KEWAUNEE LKSHORE 1700   57      30/  4/ 10 1023.4S
NORTHPORT PIER   1700   62     340/ 18/ 21 1022.4S
N MID LAKE BUOY  1700   55 53  360/  6/  6 1021.7F         2/ 4
CHAMBERS ISLAND  1700   63      20/ 15/ 18 1022.7R
MENOMINEE LKSHOR 1700   65     360/ 11/ 13 1023.2R
$$



USA.gov is the U.S. government's official web portal to all federal, state and local government web resources and services.